This is the latest recevied weather packets stored in our database for station/object W9QL-13. If no packets are shown the sender has not sent any weather packets the latest 1 day(s).
| Time | Temp. | Humidity | Pressure | Rain* | Wind** | Luminosity | Snow |
|---|---|---|---|---|---|---|---|
| 1778007841 | 14.44° C | 34% | 1008 hPa | 0 mm | 0.45 m/s, 328° | - | - |
| 1778007541 | 14.44° C | 33% | 1008 hPa | 0 mm | 0.89 m/s, 11° | - | - |
| 1778007211 | 14.44° C | 32% | 1007.8 hPa | 0 mm | 2.24 m/s, 328° | - | - |
| 1778006911 | 14.44° C | 32% | 1007.8 hPa | 0 mm | 1.34 m/s, 347° | - | - |
| 1778006611 | 14.44° C | 33% | 1007.8 hPa | 0 mm | 2.24 m/s, 319° | - | - |
| 1778006311 | 14.44° C | 32% | 1007.8 hPa | 0 mm | 2.24 m/s, 295° | - | - |
| 1778006011 | 14.44° C | 33% | 1007.8 hPa | 0 mm | 2.68 m/s, 340° | - | - |
| 1778005711 | 14.44° C | 33% | 1007.8 hPa | 0 mm | 1.34 m/s, 5° | - | - |
| 1778005411 | 15° C | 33% | 1007.8 hPa | 0 mm | 2.24 m/s, 343° | - | - |
| 1778005112 | 15° C | 34% | 1007.7 hPa | 0 mm | 0.89 m/s, 275° | - | - |
| 1778004811 | 14.44° C | 34% | 1007.6 hPa | 0 mm | 2.24 m/s, 314° | - | - |
| 1778004513 | 15° C | 31% | 1007.6 hPa | 0 mm | 2.24 m/s, 338° | - | - |
| 1778004211 | 14.44° C | 38% | 1007.6 hPa | 0 mm | 2.24 m/s, 341° | - | - |
| 1778003882 | 13.89° C | 34% | 1007.5 hPa | 0 mm | 0.89 m/s, 333° | - | - |
| 1778003581 | 13.89° C | 33% | 1007.5 hPa | 0 mm | 2.68 m/s, 11° | - | - |
| 1778003281 | 13.89° C | 32% | 1007.4 hPa | 0 mm | 1.34 m/s, 356° | - | - |
| 1778002981 | 13.89° C | 34% | 1007.4 hPa | 0 mm | 0.89 m/s, 325° | - | - |
| 1778002651 | 13.89° C | 34% | 1007.4 hPa | 0 mm | 2.24 m/s, 325° | - | - |
| 1778002351 | 13.33° C | 38% | 1007.4 hPa | 0 mm | 0.45 m/s, 308° | - | - |
| 1778002021 | 13.33° C | 38% | 1007.5 hPa | 0 mm | 0.45 m/s, 312° | - | - |
| 1778001721 | 13.33° C | 38% | 1007.4 hPa | 0 mm | 0.89 m/s, 324° | - | - |
| 1778001393 | 13.33° C | 36% | 1007.5 hPa | 0 mm | 0.45 m/s, 290° | - | - |
| 1778001091 | 13.33° C | 37% | 1007.7 hPa | 0 mm | 0.89 m/s, 308° | - | - |
| 1778000791 | 13.33° C | 39% | 1007.6 hPa | 0 mm | 1.34 m/s, 314° | - | - |
| 1778000491 | 12.78° C | 36% | 1007.7 hPa | 0 mm | 1.34 m/s, 309° | - | - |
* Rain latest hour (hover to see other rain measurements)
** Current wind speed in m/s (hover to see current wind gust speed)